EW9960 Weather Reports


time (UTC)temp
C
wind
direction
speed
KPH
gust
KPH
rain 1hr
cm
rain 24hr
cm
rain mn
cm
humidity
%
barometer
mb
20260906003008 30 205 0.0 0.0 0.00 0.00 0.00 66 1011.8
20260906001554 30 205 0.0 0.0 0.00 0.00 0.00 65 1011.9
20260906000048 31 205 0.0 0.0 0.00 0.00 0.00 60 1012.1
20260905234517 32 205 0.0 0.0 0.00 0.00 0.00 57 1012.0
20260905233033 33 205 0.0 0.0 0.00 0.00 0.00 56 1012.1
20260905231513 34 205 0.0 0.0 0.00 0.00 0.00 51 1011.9
20260905230035 35 205 0.0 1.6 0.00 0.00 0.00 48 1011.8
20260905224558 35 217 0.0 1.6 0.00 0.00 0.00 48 1011.7
20260905223032 36 177 0.0 1.6 0.00 0.00 0.00 42 1011.5
20260905221552 37 18 0.0 1.6 0.00 0.00 0.00 37 1011.4
20260905220028 38 289 0.0 4.8 0.00 0.00 0.00 35 1011.5
20260905214544 39 192 0.0 3.2 0.00 0.00 0.00 34 1011.4
20260905213006 38 205 0.0 3.2 0.00 0.00 0.00 37 1011.5
20260905211526 38 205 0.0 6.4 0.00 0.00 0.00 34 1011.7
20260905210106 38 293 0.0 8.0 0.00 0.00 0.00 36 1011.8
20260905204513 38 319 0.0 3.2 0.00 0.00 0.00 36 1012.0
20260905203032 38 208 0.0 4.8 0.00 0.00 0.00 36 1012.1
20260905201550 39 346 0.0 4.8 0.00 0.00 0.00 38 1012.2
20260905200004 38 186 0.0 11.3 0.00 0.00 0.00 37 1012.4
20260905194510 38 279 0.0 6.4 0.00 0.00 0.00 36 1012.5
20260905193037 38 212 0.0 6.4 0.00 0.00 0.00 38 1012.7
20260905191550 38 304 0.0 3.2 0.00 0.00 0.00 41 1012.9
20260905190025 37 179 0.0 6.4 0.00 0.00 0.00 40 1013.2
20260905184551 37 321 0.0 1.6 0.00 0.00 0.00 43 1013.5
20260905183016 37 349 0.0 3.2 0.00 0.00 0.00 44 1013.6
20260905181552 37 63 0.0 6.4 0.00 0.00 0.00 44 1013.7
20260905180018 37 280 0.0 1.6 0.00 0.00 0.00 42 1013.7
20260905174551 37 358 0.0 3.2 0.00 0.00 0.00 41 1013.7
20260905173026 37 19 0.0 3.2 0.00 0.00 0.00 40 1013.7
20260905171554 37 212 0.0 4.8 0.00 0.00 0.00 40 1014.0
20260905170021 37 184 0.0 1.6 0.00 0.00 0.00 43 1014.3
20260905164551 37 184 0.0 1.6 0.00 0.00 0.00 43 1014.5
20260905163013 36 338 0.0 0.0 0.00 0.00 0.00 45 1014.5
20260905161538 36 207 0.0 1.6 0.00 0.00 0.00 47 1014.7
20260905160010 36 205 0.0 4.8 0.00 0.00 0.00 47 1014.8
20260905154517 35 198 0.0 1.6 0.00 0.00 0.00 49 1014.8
20260905153040 35 251 0.0 1.6 0.00 0.00 0.00 51 1014.8
20260905151617 34 211 0.0 1.6 0.00 0.00 0.00 50 1014.8
20260905150020 33 245 0.0 1.6 0.00 0.00 0.00 59 1014.8
20260905144539 31 191 0.0 1.6 0.00 0.00 0.00 62 1014.8
20260905143007 30 164 0.0 3.2 0.00 0.00 0.00 67 1014.9
20260905141516 28 262 0.0 0.0 0.00 0.00 0.00 73 1014.9
20260905140027 27 262 0.0 0.0 0.00 0.00 0.00 74 1015.0
20260905134538 26 261 0.0 1.6 0.00 0.00 0.00 72 1015.2
20260905124527 23 127 0.0 0.0 0.00 0.00 0.00 37 1014.8
20260905123110 23 127 0.0 0.0 0.00 0.00 0.00 23 1014.8
20260905121523 23 127 0.0 0.0 0.00 0.00 0.00 20 1014.6
20260905120047 22 127 0.0 0.0 0.00 0.00 0.00 24 1014.6
20260905114520 22 127 0.0 0.0 0.00 0.00 0.00 26 1014.4
20260905113048 22 127 0.0 0.0 0.00 0.00 0.00 24 1014.4
20260905111523 22 127 0.0 0.0 0.00 0.00 0.00 30 1014.5
20260905110051 22 127 0.0 0.0 0.00 0.00 0.00 31 1014.4
20260905104529 22 127 0.0 0.0 0.00 0.00 0.00 32 1014.3
20260905103002 22 127 0.0 0.0 0.00 0.00 0.00 29 1014.2
20260905101529 22 127 0.0 0.0 0.00 0.00 0.00 31 1014.3
20260905100057 22 127 0.0 0.0 0.00 0.00 0.00 39 1014.2
20260905094523 22 127 0.0 0.0 0.00 0.00 0.00 44 1014.2
20260905093052 22 127 0.0 0.0 0.00 0.00 0.00 41 1014.1
20260905091511 22 127 0.0 0.0 0.00 0.00 0.00 47 1014.1
20260905090039 22 127 0.0 0.0 0.00 0.00 0.00 50 1014.1
20260905084503 22 127 0.0 0.0 0.00 0.00 0.00 51 1014.0
20260905083033 23 127 0.0 0.0 0.00 0.00 0.00 51 1014.1
20260905081555 23 127 0.0 0.0 0.00 0.00 0.00 54 1014.1
20260905080028 23 127 0.0 0.0 0.00 0.00 0.00 53 1014.1
20260905074541 23 127 0.0 0.0 0.00 0.00 0.00 52 1014.1
20260905073013 23 127 0.0 0.0 0.00 0.00 0.00 56 1014.3
20260905071519 23 127 0.0 0.0 0.00 0.00 0.00 54 1014.1
20260905070036 23 127 0.0 0.0 0.00 0.00 0.00 53 1014.2
20260905060009 23 127 0.0 0.0 0.00 0.00 0.00 63 1014.5
20260905054525 23 127 0.0 0.0 0.00 0.00 0.00 67 1014.5
20260905053053 23 127 0.0 0.0 0.00 0.00 0.00 70 1014.5
20260905051506 24 127 0.0 0.0 0.00 0.00 0.00 70 1014.5
20260905050031 24 127 0.0 0.0 0.00 0.00 0.00 73 1014.5
20260905044544 25 127 0.0 0.0 0.00 0.00 0.00 73 1014.4
20260905043017 25 127 0.0 0.0 0.00 0.00 0.00 73 1014.4
20260905041549 25 127 0.0 0.0 0.00 0.00 0.00 74 1014.3
20260905040031 25 127 0.0 0.0 0.00 0.00 0.00 74 1014.4
20260905034554 25 127 0.0 0.0 0.00 0.00 0.00 74 1014.4
20260905033011 25 127 0.0 0.0 0.00 0.00 0.00 74 1014.6
20260905031534 25 127 0.0 0.0 0.00 0.00 0.00 75 1014.7
20260905030029 25 127 0.0 0.0 0.00 0.00 0.00 76 1014.8
20260905024547 26 127 0.0 0.0 0.00 0.00 0.00 76 1014.8
20260905023059 26 127 0.0 0.0 0.00 0.00 0.00 76 1014.6
20260905021526 26 127 0.0 0.0 0.00 0.00 0.00 76 1014.5
20260905020028 26 127 0.0 0.0 0.00 0.00 0.00 75 1014.4
20260905014550 26 127 0.0 0.0 0.00 0.00 0.00 75 1014.2
20260905013018 27 127 0.0 0.0 0.00 0.00 0.00 74 1013.9
20260905011611 27 127 0.0 0.0 0.00 0.00 0.00 73 1013.9
20260905010031 28 127 0.0 0.0 0.00 0.00 0.00 71 1013.7
20260905004503 28 127 0.0 0.0 0.00 0.00 0.00 68 1013.5